SCP
0 0 0 0 0 0 0 0 0 0 0 0 0 0 0 0 0 0 0 0 0 0 0 1 1 1 0 0 0 0 0 0 0 0 0 0 0 0 0 0 0 0 0 0 0 0 0 0 0
0 0 0 0 0 0 0 0 0 0 0 0 0 0 0 0 0 0 0 0 0 0 0 1 1 1 1 0 0 0 0 0 0 0 0 0 0 0 0 0 0 0 0 0 0 0 0 0 0
0 0 0 0 0 0 0 0 0 0 0 0 0 0 0 0 0 0 0 0 0 1 1 1 1 1 1 1 0 0 0 0 0 0 0 0 0 0 0 0 0 0 0 0 0 0 0 0 0
0 0 0 0 0 0 0 0 0 0 0 0 0 0 0 0 0 0 0 0 0 0 1 1 1 1 1 1 1 0 0 0 0 0 0 0 0 0 0 0 0 0 0 0 0 0 0 0 0
0 0 0 0 0 0 0 0 0 0 0 0 0 0 0 0 0 0 0 0 0 0 1 1 1 1 1 1 1 1 1 1 1 1 0 0 0 0 0 0 0 0 0 0 0 0 0 0 0
0 0 0 0 0 0 0 0 0 0 0 0 0 0 0 0 1 0 0 0 0 0 1 1 1 1 1 1 1 1 1 1 1 1 1 0 0 0 0 0 0 0 0 0 0 0 0 0 0
0 0 0 0 0 0 0 0 0 0 0 0 0 0 0 0 1 1 0 0 0 1 1 1 1 1 1 1 1 1 1 1 1 1 1 1 0 0 0 0 0 0 0 0 0 0 0 0 0
0 0 0 0 0 0 0 0 0 0 1 1 1 1 0 0 1 1 1 1 1 1 1 1 1 1 1 1 1 1 1 1 1 1 1 1 1 0 0 0 0 0 0 0 0 0 0 0 0
0 0 0 0 0 0 0 0 0 1 1 2 2 1 1 1 1 1 2 2 1 1 1 1 1 1 1 1 1 1 1 1 1 1 1 1 1 1 1 1 1 1 0 0 0 0 1 1 1
0 0 0 0 0 0 0 0 1 1 1 2 2 2 2 1 1 2 3 3 2 2 1 1 1 1 1 1 1 1 1 1 1 1 1 1 1 1 1 1 1 1 1 1 1 1 1 1 1
0 0 0 0 0 0 0 0 1 1 1 2 3 3 2 2 1 2 3 4 4 3 2 2 1 1 1 1 1 1 1 1 1 1 1 1 1 1 1 1 1 1 1 1 1 1 1 1 1
0 0 0 0 0 0 0 0 0 1 1 2 3 3 2 2 2 2 4 6 7 6 4 2 2 1 1 1 1 1 1 1 1 1 1 1 1 1 1 1 1 1 1 1 1 1 1 1 1
0 0 0 0 0 0 0 0 0 1 1 3 3 3 2 2 2 3 5 7 8 7 5 3 2 2 2 1 1 1 1 1 1 1 1 1 1 1 1 1 1 1 1 1 1 1 1 1 1
0 0 0 0 0 0 0 0 0 1 2 3 4 3 3 3 3 5 6 8 8 8 5 4 3 5 5 4 2 2 2 1 1 1 1 1 1 1 1 1 1 1 1 1 1 1 1 1 1
0 0 0 0 0 0 0 0 0 1 2 4 4 4 4 4 4 5 6 6 7 8 6 5 5 7 10 6 3 4 3 2 2 1 1 1 1 1 1 0 0 0 0 0 0 0 0 0 0
0 0 0 0 0 0 0 0 0 1 2 4 5 5 5 5 4 5 5 4 5 6 6 6 6 8 9 7 5 5 4 2 2 2 1 1 1 1 1 0 0 0 0 0 0 0 0 0 0
0 0 0 0 0 0 0 0 1 1 2 3 4 5 5 5 4 4 3 3 3 3 4 6 7 7 7 6 4 4 3 2 2 2 1 1 1 1 0 0 0 0 0 0 0 0 0 0 0
0 0 0 0 0 0 0 1 1 2 2 3 4 4 5 4 3 3 3 2 2 2 3 4 5 5 5 5 3 2 2 2 1 1 1 1 1 0 0 0 0 0 0 0 0 0 0 0 0
0 0 0 0 0 0 0 1 1 2 2 2 3 3 3 3 2 2 2 2 1 1 2 2 2 2 3 3 2 2 1 1 1 1 1 1 0 0 0 0 0 0 0 0 0 0 0 0 0
0 0 0 0 0 0 0 0 1 1 1 2 2 2 2 1 1 1 1 1 1 1 1 1 1 1 1 1 1 1 1 1 1 1 1 0 0 0 0 0 0 0 0 0 0 0 0 0 0
0 0 0 0 0 0 0 0 1 1 1 1 2 1 1 1 0 0 1 1 1 1 0 0 0 0 0 1 1 1 1 0 0 0 0 0 0 0 1 0 0 0 0 0 0 0 0 0 0
0 0 0 0 0 0 0 0 1 1 1 1 1 1 1 0 0 0 0 0 0 0 0 0 0 0 0 0 1 1 1 1 1 0 0 0 0 1 1 1 0 0 0 0 0 0 0 0 0
0 0 0 0 0 0 0 0 1 1 1 1 1 0 0 0 0 0 0 0 0 0 0 0 0 0 0 0 1 1 1 1 1 1 1 1 1 1 1 1 0 0 0 0 0 0 0 0 0
0 0 0 0 0 0 0 0 0 1 1 1 0 0 0 0 0 0 0 0 0 0 0 0 0 0 0 0 0 0 0 1 1 1 1 1 1 1 1 1 1 0 0 0 0 0 0 0 0
0 0 0 0 0 0 0 0 0 1 1 0 0 0 0 0 0 0 0 0 0 0 0 0 0 0 0 0 0 0 0 0 0 0 0 1 1 1 1 0 0 0 0 0 0 0 0 0 0
0 0 0 0 0 0 0 0 1 1 0 0 0 0 0 0 0 0 0 0 0 0 0 0 0 0 0 0 0 0 0 0 0 0 0 0 0 0 0 0 0 0 1 0 0 0 0 0 0
0 0 0 0 0 0 0 0 0 0 0 0 0 0 0 0 0 0 0 0 0 0 0 0 0 0 0 0 0 0 0 0 0 0 0 0 0 0 0 0 0 0 0 0 0 0 0 0 0
0 0 0 0 0 0 0 0 0 0 0 0 0 0 0 0 0 0 0 0 0 0 0 0 0 0 0 0 0 0 0 0 0 0 0 0 0 0 0 0 0 0 0 0 0 0 0 0 0
0 0 0 0 0 0 0 0 0 0 0 0 0 0 0 0 0 0 0 0 0 0 0 0 0 0 0 0 0 0 0 0 0 0 0 0 0 0 0 0 0 0 0 0 0 0 0 0 0
0 0 0 0 0 0 0 0 0 0 0 0 0 0 0 0 0 0 0 0 0 0 0 0 0 0 0 0 0 0 0 0 0 0 0 0 0 0 0 0 0 0 0 0 0 0 0 0 0
Wind_Speed
7 6 3 1 1 3 5 7 7 9 7 5 9 11 8 4 4 4 5 18 19 17 14 18 21 22 21 20 19 19 18 17 16 15 15 15 14 14 13 13 13 14 13 11 10 10 10 10 10
4 5 2 0 3 4 6 6 9 8 4 1 7 7 6 5 7 10 8 16 21 18 13 15 21 21 21 20 19 19 18 18 17 16 15 15 14 14 13 13 13 13 12 11 10 9 9 9 8
3 4 2 2 2 4 5 4 8 11 7 3 4 5 5 7 10 8 9 18 16 14 11 15 23 22 21 20 19 19 19 18 18 17 16 16 15 14 14 13 13 13 12 12 11 10 10 9 8
2 2 2 2 3 6 6 4 1 9 8 6 4 5 3 5 9 11 18 17 16 12 10 15 22 21 21 21 20 19 19 18 18 17 17 16 15 14 14 13 13 12 12 12 11 10 9 9 9
3 3 2 1 6 6 6 2 5 5 6 5 4 4 3 3 16 21 19 18 16 12 10 13 21 21 21 20 20 19 19 18 17 16 15 14 13 13 13 12 12 11 11 10 10 10 10 10 9
2 3 1 3 4 5 5 4 8 5 3 1 3 4 1 8 18 19 19 17 17 16 13 12 21 21 20 20 19 19 19 18 17 16 16 15 14 13 12 12 11 11 11 11 11 11 11 12 12
3 2 3 4 3 4 5 5 7 10 8 6 4 5 3 8 14 17 16 15 15 15 13 10 13 16 20 20 19 18 18 17 17 17 16 16 15 14 13 12 12 12 12 12 12 12 11 11 12
5 3 3 3 3 4 4 5 6 11 8 5 6 8 7 10 12 15 14 14 14 14 14 12 10 9 10 12 18 18 18 17 17 17 16 16 15 14 14 12 12 14 14 14 14 14 14 13 12
2 3 4 4 3 3 4 4 4 4 5 3 4 7 9 15 15 15 11 11 12 13 12 12 11 10 8 8 13 15 17 17 16 14 17 15 7 7 8 11 14 15 15 16 16 16 16 14 13
5 3 9 7 7 5 6 7 8 6 5 3 4 4 11 17 17 19 16 17 17 16 13 11 12 11 10 10 8 6 7 8 8 7 8 6 5 6 8 10 17 18 18 18 18 17 15 12 6
4 7 9 11 13 7 5 5 7 10 7 11 14 14 17 15 15 17 18 20 20 17 15 13 13 12 12 8 7 5 4 5 6 7 7 5 5 5 6 4 7 9 13 9 10 10 6 6 5
4 9 9 9 8 5 5 5 3 8 13 17 18 18 19 17 18 18 17 17 14 14 14 14 14 12 12 8 7 7 6 5 6 8 8 6 5 6 5 4 4 4 3 4 4 4 6 7 8
4 6 8 8 8 6 6 7 6 7 8 14 14 14 18 18 16 11 8 7 8 8 8 11 12 12 10 8 6 7 7 6 7 5 6 7 6 6 5 3 3 3 3 3 4 4 5 5 6
6 9 12 10 10 6 6 9 8 8 4 12 15 15 13 11 9 3 1 3 7 6 4 3 8 9 8 6 5 5 5 5 5 5 7 8 6 4 4 3 3 3 3 3 3 4 4 3 2
5 8 12 10 8 7 6 10 11 7 6 12 14 11 6 4 9 13 15 14 10 8 7 5 3 4 4 5 5 4 4 4 4 4 5 6 6 5 4 3 3 3 3 3 2 3 2 2 2
6 5 7 13 8 9 2 10 17 5 6 10 9 7 11 15 18 18 19 19 17 13 12 11 7 5 2 0 2 3 4 4 4 4 4 6 6 5 4 3 3 2 2 2 2 2 1 1 1
4 4 9 14 8 5 5 8 9 3 10 11 11 12 15 15 16 14 14 14 12 11 11 11 10 7 6 6 4 2 2 3 3 4 4 5 6 6 4 3 3 2 2 1 1 1 1 1 1
6 6 6 6 9 4 3 3 12 14 18 17 15 13 13 13 10 8 9 10 8 10 9 7 7 8 8 7 5 4 3 2 3 4 5 6 5 6 5 3 3 3 2 1 1 1 1 1 1
5 4 5 5 6 8 10 14 17 19 19 16 12 10 9 7 4 5 8 9 6 7 9 6 4 7 7 6 5 3 3 2 3 4 6 6 6 7 6 4 4 3 3 3 2 2 1 0 0
5 5 5 5 7 8 11 15 14 18 17 14 12 11 9 5 4 7 9 10 9 8 5 3 5 6 8 6 4 3 3 2 3 3 5 6 6 7 6 6 4 4 3 2 2 2 2 0 1
5 4 5 4 4 8 6 8 11 11 14 15 14 11 11 9 9 10 13 13 13 11 8 5 3 3 5 5 3 1 1 1 1 2 3 5 6 7 6 7 6 5 4 3 2 2 3 1 0
5 7 5 4 3 3 4 2 4 6 12 15 14 12 11 9 9 10 12 12 12 10 9 7 6 5 6 6 5 4 1 1 1 2 2 4 5 6 7 7 7 6 4 4 3 2 3 3 1
5 5 3 3 1 1 3 5 2 4 9 11 10 9 8 6 6 7 8 8 8 7 6 5 5 6 6 7 7 7 6 4 3 4 4 3 3 3 5 7 7 6 5 5 4 3 3 3 3
1 6 7 7 6 3 3 5 3 3 2 4 4 4 3 3 4 5 5 6 5 4 3 3 4 4 4 5 6 6 6 6 6 6 6 5 3 2 3 5 6 6 5 5 5 5 4 3 3
6 8 6 7 6 3 1 6 2 3 4 4 3 1 2 2 2 3 3 3 1 1 1 1 2 3 4 4 4 4 4 4 4 4 4 4 3 3 4 3 4 5 6 6 5 5 4 4 4
1 7 5 3 4 3 3 3 2 3 3 3 3 1 1 2 2 2 1 0 1 2 2 2 1 0 1 2 3 3 3 2 2 2 2 3 3 4 5 5 2 3 5 5 5 4 4 4 5
0 1 5 6 1 2 1 3 2 4 3 2 2 2 3 3 3 4 3 2 2 2 3 3 3 3 2 2 1 1 2 2 3 3 3 2 3 4 5 6 5 4 4 5 5 5 6 5 5
2 1 6 4 1 2 1 2 4 6 3 1 0 0 2 3 4 5 5 5 5 3 3 2 3 4 5 5 5 4 4 4 4 3 4 4 4 4 5 6 6 6 5 5 6 5 6 6 6
6 5 4 2 3 3 1 3 3 4 3 3 3 3 4 5 7 8 8 8 7 5 4 4 4 5 5 6 6 6 6 6 5 5 6 5 4 5 5 5 5 6 6 6 5 6 6 7 7
5 4 2 2 3 2 2 2 2 4 4 2 3 5 7 8 8 8 8 9 7 7 7 6 7 7 7 7 7 7 7 7 6 7 7 6 6 6 5 5 5 6 6 5 5 6 6 6 7
Wind_Direction
158 157 156 167 59 37 321 300 331 346 16 39 80 91 89 83 150 170 139 150 145 152 159 157 157 159 161 158 153 150 148 147 147 148 146 143 141 139 137 134 134 138 139 134 131 133 134 134 135
162 167 139 29 76 35 312 309 327 335 343 116 80 79 79 68 84 112 124 152 148 151 155 157 158 160 162 161 158 156 155 154 155 156 154 151 148 147 147 146 145 145 146 148 150 151 151 151 152
168 178 149 71 94 171 235 275 306 325 329 333 61 56 81 114 121 132 144 147 143 149 154 161 159 162 164 164 163 162 161 161 162 162 161 159 158 156 156 157 157 157 157 159 163 166 167 168 170
145 112 56 80 213 225 227 226 307 339 349 16 67 59 52 128 134 137 141 147 147 152 158 163 162 165 166 167 167 168 168 168 169 168 168 167 167 168 167 167 168 167 166 166 169 173 176 180 183
93 95 78 249 233 232 235 222 101 36 342 25 64 73 18 46 123 136 147 153 154 155 161 167 165 167 169 170 172 173 173 173 173 173 173 174 175 178 177 178 178 177 177 178 180 185 190 194 198
88 90 111 250 248 235 221 193 120 91 335 329 96 101 102 127 135 148 154 159 160 160 165 170 169 170 172 174 176 177 177 178 178 179 179 181 183 187 189 190 191 193 193 195 197 201 205 206 209
151 129 231 253 283 252 208 186 151 152 198 231 154 114 149 157 153 156 159 160 160 162 167 175 174 175 176 178 180 181 182 183 184 185 186 187 189 193 197 200 203 205 207 209 210 213 216 215 214
153 107 281 289 306 293 181 172 191 166 180 179 157 152 179 187 157 159 161 161 163 167 172 177 175 175 177 181 186 187 188 189 190 192 193 195 197 200 205 207 213 215 216 218 220 221 224 223 222
108 67 260 254 269 290 201 194 205 179 146 188 198 185 180 167 154 161 163 161 169 175 179 179 176 176 174 178 190 191 194 195 196 198 201 201 204 206 212 218 220 224 225 226 226 226 226 227 231
116 186 243 236 251 269 230 214 184 161 165 202 222 204 158 167 166 171 174 174 179 182 183 182 181 179 176 185 187 188 194 197 197 197 203 198 191 204 214 222 230 231 231 231 231 231 229 228 227
183 217 257 271 267 264 265 247 184 157 188 206 197 185 171 177 177 181 183 184 185 180 179 180 183 183 182 187 178 185 195 195 202 203 201 196 194 207 219 215 237 236 234 231 235 234 225 218 212
271 271 270 273 285 294 284 287 240 194 211 203 191 178 174 183 189 191 190 187 180 176 182 180 182 183 188 187 180 183 191 196 204 209 200 197 204 210 212 212 220 217 215 211 216 218 216 222 222
282 287 304 299 307 307 313 302 292 274 236 184 175 176 186 191 195 196 184 163 158 165 182 187 187 184 186 187 184 185 193 198 204 202 199 200 206 214 213 208 213 212 203 206 213 218 223 227 228
290 307 305 297 303 303 314 307 315 290 166 164 174 186 193 192 187 173 121 119 129 135 138 168 200 188 177 179 180 185 188 191 194 198 200 197 198 202 204 208 213 211 201 199 201 207 216 225 225
300 323 318 298 293 288 341 321 292 279 165 176 184 183 167 80 51 39 30 28 36 48 43 25 262 210 153 149 165 169 172 167 184 189 181 175 176 183 185 193 207 209 196 190 192 210 206 215 216
337 333 300 282 272 266 251 273 280 305 148 168 170 129 83 63 57 51 49 45 37 34 32 21 342 332 1 108 181 177 172 171 183 173 164 167 173 174 173 183 203 202 184 179 188 199 203 214 220
332 279 278 291 290 247 187 247 297 17 102 94 91 95 94 82 72 66 64 62 54 45 35 23 357 328 327 319 299 274 219 185 177 164 167 178 180 176 172 186 204 190 179 197 216 182 187 220 256
269 279 291 314 334 16 80 14 18 31 73 78 78 84 91 86 86 89 87 80 80 92 72 42 347 321 305 306 301 289 272 214 175 171 178 177 179 172 167 169 171 162 149 144 149 151 157 194 236
263 315 322 318 340 36 54 52 41 47 63 64 58 58 65 79 91 80 79 84 81 89 97 112 196 244 258 257 260 256 244 220 190 191 184 180 175 167 164 158 154 150 149 155 149 144 121 192 176
338 346 330 321 350 34 65 65 55 52 57 53 41 26 12 8 27 50 59 62 57 65 86 139 213 236 247 250 244 233 224 217 199 196 197 192 177 168 167 162 163 161 150 138 124 125 128 162 117
333 311 304 313 8 27 73 54 40 47 56 52 40 22 7 11 28 42 47 47 48 45 33 35 26 356 324 299 284 300 14 18 48 227 227 215 190 177 169 171 167 170 162 165 166 151 148 160 72
290 283 299 320 14 342 52 71 34 28 43 41 33 20 11 10 32 48 52 51 51 49 43 34 29 36 25 8 8 17 22 333 313 277 260 250 216 187 177 178 176 174 170 174 193 168 157 152 188
268 292 332 328 335 18 29 91 9 10 38 36 29 20 4 354 26 50 58 63 61 59 56 47 31 30 30 35 32 31 27 10 357 359 355 318 272 227 201 190 181 178 176 180 188 188 186 169 179
341 27 21 37 53 16 350 101 14 25 65 54 33 16 340 343 28 50 60 67 60 47 39 32 34 27 20 32 41 43 33 17 13 7 0 351 337 322 283 225 196 184 179 182 187 191 195 200 209
53 62 21 358 1 289 2 95 129 141 146 136 145 226 274 315 20 39 50 63 88 112 100 60 46 18 8 23 29 30 27 17 10 351 347 347 339 332 326 279 213 193 187 183 179 189 207 212 219
321 119 137 222 249 288 14 90 157 176 180 164 153 184 312 339 353 5 356 273 237 223 212 201 176 247 347 19 13 8 7 355 331 327 321 318 305 299 320 336 292 217 194 189 186 197 212 213 217
275 229 176 158 239 95 128 114 171 222 202 154 104 47 4 348 351 346 337 326 292 265 248 233 217 222 225 213 211 274 315 315 305 308 309 301 300 307 325 326 322 295 238 215 199 206 214 211 214
140 156 59 67 50 349 275 206 192 195 195 155 181 301 309 312 308 301 292 278 263 235 216 207 208 220 222 218 219 220 234 246 260 281 294 296 299 311 320 320 314 304 282 246 220 215 217 214 218
355 15 53 78 151 142 302 284 225 192 202 225 254 257 269 276 276 272 270 268 259 246 238 241 239 235 236 233 233 237 242 240 242 251 263 270 276 287 294 299 304 304 294 276 252 238 225 219 221
41 18 62 97 341 69 109 288 230 187 214 235 289 297 295 290 287 289 297 296 289 276 268 261 256 251 248 242 240 244 247 244 242 247 251 251 258 265 267 274 283 290 296 300 286 267 255 236 226